FW1969 Weather Reports


time (UTC)temp
C
wind
direction
speed
KPH
gust
KPH
rain 1hr
cm
rain 24hr
cm
rain mn
cm
humidity
%
barometer
mb
20260905204545 36 266 6.4 17.7 0.00 0.05 0.05 31 1005.3
20260905203040 36 257 8.0 16.1 0.00 0.05 0.05 31 1005.5
20260905201537 36 325 3.2 16.1 0.00 0.05 0.05 31 1005.7
20260905200035 36 23 6.4 16.1 0.00 0.05 0.05 31 1005.9
20260905194533 36 294 4.8 12.9 0.00 0.05 0.05 31 1006.0
20260905193031 35 320 6.4 16.1 0.00 0.05 0.05 31 1006.3
20260905191528 35 217 4.8 14.5 0.00 0.05 0.05 30 1006.4
20260905190027 35 202 4.8 11.3 0.00 0.05 0.05 32 1006.6
20260905184530 35 196 1.6 11.3 0.00 0.05 0.05 32 1006.8
20260905183025 34 178 3.2 9.7 0.00 0.05 0.05 33 1007.1
20260905181523 34 223 0.0 6.4 0.00 0.05 0.05 32 1007.2
20260905180020 33 204 0.0 8.0 0.00 0.05 0.05 34 1007.3
20260905174524 33 204 4.8 12.9 0.00 0.05 0.05 34 1007.5
20260905173017 32 165 4.8 12.9 0.00 0.05 0.05 36 1007.5
20260905171515 32 162 3.2 9.7 0.00 0.05 0.05 37 1007.6
20260905170012 32 167 4.8 12.9 0.00 0.05 0.05 37 1008.0
20260905164514 31 166 6.4 16.1 0.00 0.05 0.05 38 1008.4
20260905163006 31 159 4.8 12.9 0.00 0.05 0.05 38 1008.5
20260905161505 31 170 8.0 14.5 0.00 0.05 0.05 39 1008.5
20260905160058 30 166 4.8 14.5 0.00 0.05 0.05 42 1008.5
20260905154607 30 157 9.7 16.1 0.00 0.05 0.05 42 1008.6
20260905153052 30 141 6.4 17.7 0.00 0.05 0.05 42 1008.6
20260905151547 28 144 8.0 19.3 0.00 0.05 0.05 46 1008.5
20260905150043 28 144 9.7 17.7 0.00 0.05 0.05 46 1008.8
20260905144540 27 147 4.8 20.9 0.00 0.05 0.05 47 1008.9
20260905143037 28 134 1.6 12.9 0.00 0.05 0.05 47 1009.0
20260905141533 27 90 3.2 19.3 0.00 0.05 0.05 49 1009.2
20260905140030 26 118 3.2 12.9 0.00 0.05 0.05 50 1009.3
20260905134528 26 139 4.8 17.7 0.00 0.05 0.05 50 1009.5
20260905133035 25 57 4.8 16.1 0.00 0.05 0.05 51 1009.7
20260905131527 24 28 11.3 24.1 0.00 0.05 0.05 54 1009.7
20260905130020 23 51 12.9 24.1 0.00 0.05 0.05 55 1009.4
20260905124518 24 52 8.0 20.9 0.00 0.05 0.05 56 1009.8
20260905123016 24 39 9.7 24.1 0.00 0.05 0.05 56 1009.4
20260905121512 23 127 3.2 11.3 0.00 0.05 0.05 56 1008.7
20260905120007 24 98 6.4 14.5 0.00 0.05 0.05 56 1008.5
20260905114505 24 49 3.2 14.5 0.00 0.05 0.05 55 1008.4
20260905113002 25 49 6.4 14.5 0.00 0.05 0.05 55 1008.1
20260905111601 25 47 4.8 20.9 0.00 0.05 0.05 55 1008.0
20260905110100 25 59 6.4 14.5 0.00 0.05 0.05 55 1008.0
20260905104557 25 22 6.4 19.3 0.00 0.05 0.05 55 1007.8
20260905103058 26 350 0.0 4.8 0.00 0.05 0.05 55 1007.0
20260905101600 26 350 0.0 4.8 0.00 0.05 0.05 54 1006.8
20260905100117 26 350 1.6 3.2 0.00 0.05 0.05 53 1006.9
20260905094551 27 350 0.0 3.2 0.03 0.05 0.05 53 1007.1
20260905093050 27 350 0.0 3.2 0.03 0.05 0.05 52 1006.9
20260905091557 27 350 0.0 6.4 0.03 0.05 0.05 51 1006.5
20260905090048 26 309 16.1 38.6 0.05 0.05 0.05 53 1006.9
20260905084551 26 332 1.6 9.7 0.03 0.03 0.03 55 1006.9
20260905083104 27 327 0.0 4.8 0.03 0.03 0.03 56 1006.4
20260905081544 27 327 4.8 9.7 0.03 0.03 0.03 55 1006.5
20260905080042 27 319 1.6 9.7 0.00 0.00 0.00 55 1006.7
20260905074541 27 319 0.0 0.0 0.00 0.00 0.00 55 1006.6
20260905073041 27 319 0.0 0.0 0.00 0.00 0.00 54 1006.6
20260905071541 27 319 0.0 0.0 0.00 0.00 0.00 53 1006.7
20260905070038 27 319 0.0 1.6 0.00 0.00 0.00 53 1006.9
20260905064535 28 319 0.0 1.6 0.00 0.00 0.00 54 1007.0
20260905063034 28 319 0.0 3.2 0.00 0.00 0.00 53 1007.3
20260905061532 28 319 0.0 3.2 0.00 0.00 0.00 53 1007.6
20260905060040 28 319 0.0 0.0 0.00 0.00 0.00 53 1007.7
20260905054556 28 319 0.0 3.2 0.00 0.00 0.00 53 1007.8
20260905053027 28 319 3.2 6.4 0.00 0.00 0.00 53 1007.9
20260905051526 28 319 3.2 6.4 0.00 0.00 0.00 53 1007.8
20260905050023 28 319 3.2 8.0 0.00 0.00 0.00 52 1008.0
20260905044522 29 319 0.0 3.2 0.00 0.00 0.00 52 1008.0
20260905043021 29 319 0.0 0.0 0.00 0.00 0.00 51 1008.0
20260905041520 30 319 0.0 0.0 0.00 0.00 0.00 51 1008.0
20260905040016 30 319 0.0 0.0 0.00 0.00 0.00 50 1008.0
20260905034516 30 319 0.0 0.0 0.00 0.00 0.00 49 1008.0
20260905033018 30 319 0.0 0.0 0.00 0.00 0.00 49 1008.0
20260905031514 30 319 0.0 0.0 0.00 0.00 0.00 49 1008.1
20260905030014 31 319 0.0 0.0 0.00 0.00 0.00 48 1008.2
20260905024515 31 319 0.0 0.0 0.00 0.00 0.00 48 1008.1
20260905023014 31 319 0.0 0.0 0.00 0.00 0.00 47 1007.9
20260905021513 31 319 0.0 0.0 0.00 0.00 0.00 46 1007.9
20260905020012 31 319 0.0 0.0 0.00 0.00 0.00 45 1007.7
20260905014512 32 319 0.0 0.0 0.00 0.00 0.00 44 1007.7
20260905013014 32 319 0.0 3.2 0.00 0.00 0.00 43 1007.5
20260905011517 32 319 1.6 4.8 0.00 0.00 0.00 42 1007.3
20260905010015 33 319 1.6 4.8 0.00 0.00 0.00 41 1007.2
20260905004510 33 319 3.2 6.4 0.00 0.00 0.00 40 1007.1
20260905003009 33 319 1.6 6.4 0.00 0.00 0.00 38 1007.0
20260905001509 34 319 0.0 3.2 0.00 0.00 0.00 36 1006.8
20260905000008 35 319 1.6 4.8 0.00 0.00 0.00 35 1006.9
20260904234507 35 319 1.6 4.8 0.00 0.00 0.00 33 1006.7
20260904233109 35 319 3.2 6.4 0.00 0.00 0.00 33 1006.8
20260904231608 36 319 4.8 8.0 0.00 0.00 0.00 32 1006.9
20260904230006 36 319 1.6 4.8 0.00 0.00 0.00 31 1007.0
20260904224501 36 319 3.2 14.5 0.00 0.00 0.00 32 1007.2
20260904223002 36 323 4.8 9.7 0.00 0.00 0.00 32 1007.3
20260904221501 36 324 3.2 12.9 0.00 0.00 0.00 32 1007.3
20260904220104 36 321 4.8 12.9 0.00 0.00 0.00 32 1007.3
20260904214601 36 327 3.2 12.9 0.00 0.00 0.00 32 1007.3
20260904213058 37 331 9.7 14.5 0.00 0.00 0.00 31 1007.5
20260904211559 36 329 8.0 14.5 0.00 0.00 0.00 32 1007.5
20260904210058 36 335 4.8 17.7 0.00 0.00 0.00 32 1007.5